Regional Weather Roundup
Issued by NWS Cleveland, OH

Home | Current Version | Previous Version | Text Only | Print | Product List | Glossary Off
Versions: 1 2 3 4 5 6 7 8 9 10 11 12 13 14 15 16 17 18 19 20 21 22 23 24 25 26 27 28 29 30 31 32 33 34 35 36 37 38 39 40 41 42 43 44 45 46 47 48 49 50

000
ASUS41 KCLE 062300
RWRCLE
OHIO REGIONAL WEATHER ROUNDUP
NATIONAL WEATHER SERVICE WILMINGTON, OH
700 PM EDT FRI MAY 06 2016

NOTE: "FAIR" INDICATES FEW OR NO CLOUDS BELOW 12,000 FEET WITH NO
SIGNIFICANT WEATHER AND/OR OBSTRUCTIONS TO VISIBILITY.

OHZ001>008-015>018-024>027-034-035-043-044-070000-
   NORTHWEST OHIO

CITY           SKY/WX    TMP DP  RH WIND       PRES   REMARKS
DEFIANCE       FAIR      72  33  24 W6        29.85F
FINDLAY        FAIR      70  39  32 NW14      29.84F
TOLEDO EXPRESS FAIR      71  39  31 NW12      29.83F
TOLEDO EXEC    FAIR      71  40  32 NW9       29.84S
LIMA           FAIR      67  41  38 N8        29.86F
$$

OHZ009>014-019>023-028>033-038-089-070000-
   NORTHEAST OHIO

CITY           SKY/WX    TMP DP  RH WIND       PRES   REMARKS
CLE-HOPKINS    FAIR      66  39  37 NW10      29.85S
CLE-LAKEFRONT  FAIR      59  45  59 N7        29.84R
CUY CO. ARPT   MOSUNNY   64  43  45 NW7       29.85R
LORAIN-ELYRIA  FAIR      65  37  35 NW9       29.85S
ASHTABULA      FAIR      62  32  32 VRB5      29.83S
AKRON-CANTON   FAIR      64  37  36 N14       29.82R
WOOSTER        NOT AVBL
MANSFIELD      FAIR      64  38  38 N10       29.86R
YOUNGSTOWN     PTSUNNY   64  30  27 NE18G30   29.81R
$$

OHZ042-051>053-060>062-070>072-077>081-070000-
  SOUTHWEST OHIO

CITY           SKY/WX    TMP DP  RH WIND       PRES   REMARKS
CINC-COVINGTON FAIR      69  38  32 NW13      29.88F
CINC-LUNKEN    FAIR      69  40  34 NW15      29.88S
HAMILTON       FAIR      69  40  34 NW13      29.88F
DAYTON         NOT AVBL
WRIGHT-PAT AFB NOT AVBL
DAYTON GENERAL FAIR      69  37  30 NW12      29.86F
WILMINGTON     FAIR      67  40  37 N16       29.86F
$$

OHZ036-037-039>041-045>050-054>059-063>069-073>076-082>088-070000-
  CENTRAL AND SOUTHEAST OHIO

CITY           SKY/WX    TMP DP  RH WIND       PRES   REMARKS
COLUMBUS       FAIR      66  39  37 N17       29.84S
OSU AIRPORT    FAIR      66  38  35 NW16      29.84F
BOLTON FIELD   NOT AVBL
RICKENBACK AFB NOT AVBL
NEWARK         FAIR      68  37  32 N14G23    29.83S
MARION         FAIR      68  39  34 N13       29.86S
LANCASTER      FAIR      67  38  34 N13       29.84S
ZANESVILLE     FAIR      68  36  30 N12       29.82R
NEW PHILLY     PTSUNNY   67  35  30 N12G21    29.81R
$$



USA.gov is the U.S. government's official web portal to all federal, state and local government web resources and services.